2024/01/25 00:00:00,50.0,-2.0
2024/01/25 00:10:00,50.3,-2.1
2024/01/25 00:20:00,50.8,-2.3
2024/01/25 00:30:00,50.8,-2.4
2024/01/25 00:40:00,51.0,-2.3
2024/01/25 00:50:00,51.8,-2.1
2024/01/25 01:00:00,52.0,-2.1
2024/01/25 01:10:00,51.8,-2.1
2024/01/25 01:20:00,51.7,-2.4
2024/01/25 01:30:00,52.0,-2.4
2024/01/25 01:40:00,52.1,-2.4
2024/01/25 01:50:00,51.8,-2.4
2024/01/25 02:00:00,51.5,-2.4
2024/01/25 02:10:00,51.2,-2.6
2024/01/25 02:20:00,51.3,-2.1
2024/01/25 02:30:00,51.1,-2.4
2024/01/25 02:40:00,51.2,-2.5
2024/01/25 02:50:00,51.3,-2.5
2024/01/25 03:00:00,51.2,-2.3
2024/01/25 03:10:00,51.0,-2.4
2024/01/25 03:20:00,51.1,-2.4
2024/01/25 03:30:00,51.1,-2.4
2024/01/25 03:40:00,51.1,-2.4
2024/01/25 03:50:00,51.1,-2.5
2024/01/25 04:00:00,51.2,-2.3
2024/01/25 04:10:00,51.2,-2.3
2024/01/25 04:20:00,51.3,-2.2
2024/01/25 04:30:00,51.4,-1.9
2024/01/25 04:40:00,51.9,-2.1
2024/01/25 04:50:00,52.8,-2.0
2024/01/25 05:00:00,53.0,-2.2
2024/01/25 05:10:00,53.2,-2.2
2024/01/25 05:20:00,53.7,-2.1
2024/01/25 05:30:00,54.0,-2.0
2024/01/25 05:40:00,54.1,-2.0
2024/01/25 05:50:00,54.5,-2.0
2024/01/25 06:00:00,55.0,-1.9
2024/01/25 06:10:00,55.3,-2.0
2024/01/25 06:20:00,55.4,-1.7
2024/01/25 06:30:00,55.9,-1.9
2024/01/25 06:40:00,56.6,-1.6
2024/01/25 06:50:00,57.6,-1.8
2024/01/25 07:00:00,57.8,-1.8
2024/01/25 07:10:00,58.1,-1.7
2024/01/25 07:20:00,58.3,-1.5
2024/01/25 07:30:00,58.3,-1.4
2024/01/25 07:40:00,58.3,-1.7
2024/01/25 07:50:00,58.4,-1.5
2024/01/25 08:00:00,58.8,-1.3
2024/01/25 08:10:00,59.3,-1.2
2024/01/25 08:20:00,59.8,-0.9
2024/01/25 08:30:00,59.7,-0.9
2024/01/25 08:40:00,59.6,-0.9
2024/01/25 08:50:00,59.5,-1.0
2024/01/25 09:00:00,59.4,-0.7
2024/01/25 09:10:00,59.3,-0.1
2024/01/25 09:20:00,59.0,-0.3
2024/01/25 09:30:00,58.8,-0.3
2024/01/25 09:40:00,58.6,-0.2
2024/01/25 09:50:00,58.5,-0.5
2024/01/25 10:00:00,58.5,-0.6
2024/01/25 10:10:00,58.5,-0.2
2024/01/25 10:20:00,58.5,-0.4
2024/01/25 10:30:00,58.3, 0.1
2024/01/25 10:40:00,58.1, 0.6
2024/01/25 10:50:00,57.7, 0.3
2024/01/25 11:00:00,57.6, 0.3
2024/01/25 11:10:00,57.5, 0.9
2024/01/25 11:20:00,57.4, 0.5
2024/01/25 11:30:00,57.8, 0.7
2024/01/25 11:40:00,57.8, 0.5
2024/01/25 11:50:00,57.6, 0.4
2024/01/25 12:00:00,57.6, 0.8
2024/01/25 12:10:00,57.5, 1.0
2024/01/25 12:20:00,57.4, 1.2
2024/01/25 12:30:00,57.3, 1.4
2024/01/25 12:40:00,57.3, 1.1
2024/01/25 12:50:00,57.6, 1.1
2024/01/25 13:00:00,57.8, 1.4
2024/01/25 13:10:00,58.3, 1.1
2024/01/25 13:20:00,58.2, 1.4
2024/01/25 13:30:00,58.0, 1.3
2024/01/25 13:40:00,58.1, 1.0
2024/01/25 13:50:00,58.1, 1.3
2024/01/25 14:00:00,58.0, 1.1
2024/01/25 14:10:00,58.1, 1.1
2024/01/25 14:20:00,58.1, 1.2
2024/01/25 14:30:00,58.2, 1.1
2024/01/25 14:40:00,58.3, 1.1
2024/01/25 14:50:00,58.8, 0.8
2024/01/25 15:00:00,59.1, 1.0
2024/01/25 15:10:00,59.0, 1.1
2024/01/25 15:20:00,59.2, 0.9
2024/01/25 15:30:00,59.4, 0.9
2024/01/25 15:40:00,59.5, 1.1
2024/01/25 15:50:00,59.5, 0.6
2024/01/25 16:00:00,59.3, 0.4
2024/01/25 16:10:00,59.3, 0.4
2024/01/25 16:20:00,59.6, 0.3
2024/01/25 16:30:00,60.0, 0.4
2024/01/25 16:40:00,60.2, 0.3
2024/01/25 16:50:00,60.5, 0.3
2024/01/25 17:00:00,60.7,-0.0
2024/01/25 17:10:00,60.7,-0.0
2024/01/25 17:20:00,61.0,-0.0
2024/01/25 17:30:00,61.0,-0.3
2024/01/25 17:40:00,60.8,-0.2
2024/01/25 17:50:00,60.8,-0.2
2024/01/25 18:00:00,61.0,-0.2
2024/01/25 18:10:00,61.4, 0.2
2024/01/25 18:20:00,61.4,-0.6
2024/01/25 18:30:00,61.8,-0.4
2024/01/25 18:40:00,61.9,-0.3
2024/01/25 18:50:00,62.2,-0.2
2024/01/25 19:00:00,62.6,-0.3
2024/01/25 19:10:00,62.7,-0.4
2024/01/25 19:20:00,62.9,-0.6
2024/01/25 19:30:00,63.4,-0.4
2024/01/25 19:40:00,63.7,-0.5
2024/01/25 19:50:00,63.6,-0.5
2024/01/25 20:00:00,63.5,-0.5
2024/01/25 20:10:00,63.4,-0.5
2024/01/25 20:20:00,63.4,-0.7
2024/01/25 20:30:00,63.1,-0.3
2024/01/25 20:40:00,63.0,-0.6
2024/01/25 20:50:00,62.8,-0.2
2024/01/25 21:00:00,62.6,-0.3
2024/01/25 21:10:00,62.4,-0.4
2024/01/25 21:20:00,62.3,-0.2
2024/01/25 21:30:00,62.2,-0.5
2024/01/25 21:40:00,62.0,-0.4
2024/01/25 21:50:00,61.9,-0.6
2024/01/25 22:00:00,61.7,-0.4
2024/01/25 22:10:00,61.5,-0.2
2024/01/25 22:20:00,61.4,-0.6
2024/01/25 22:30:00,61.4,-0.7
2024/01/25 22:40:00,61.2,-0.8
2024/01/25 22:50:00,61.1,-0.7
2024/01/25 23:00:00,61.0,-1.2
2024/01/25 23:10:00,60.8,-0.7
2024/01/25 23:20:00,60.8,-0.6
2024/01/25 23:30:00,60.9,-1.0
2024/01/25 23:40:00,60.8,-0.8
2024/01/25 23:50:00,60.6,-0.7
